Starlink 4667

operational
NORAD ID: 53707 Int'l Des: 2022-107 Owner: SPXS Country: US Constellation: starlink
LEOCIRCULAR

Starlink 4667について

説明を読み込み中...

リアルタイム位置

3D地球を読み込み中...

次回通過

高度履歴

Altitude vs Time

uPlot chart will show altitude changes over time

軌道要素

1 53707U 22107H 25349.03135408 .00006286 00000-0 41282-3 0 9993
2 53707 53.2184 249.1822 0001492 93.3859 266.7304 15.08827346182281
Epoch: Dec 15, 2025 • Age: 26 hours

現在のステータス

高度 545.3 km
速度 7.60 km/s
衛星直下点 53.37°N, 149.04°W
打ち上げ日 Sep 5, 2022
運用期間 3.2 years
タイプ internet

技術仕様

分類 Payload
質量 305.00 kg
乾燥質量 290.00 kg
総質量 305.00 kg
長さ 0.20 m
直径 2.80 m
スパン 9.00 m
形状 Box + pan
製造者 SPXS
バスタイプ Starlink
フェーズステータス In Orbit
所有者/国 SPXS/US

大規模コンステレーション

Loading constellations...